WXM80 ListenWXM80 Stop

You find our weather info also at:

UK Metoffice

WeatherCloud

Weather Underground

Northeastern Weather Network

AWEKAS

Citizen Weather Observer Program (CWOP)

HAMweather, WeatherForYou, PWS Weather


Weather Underground History page Text

Daily Summary for January 1, 2018 Units:  English    Metric   Both
« Previous Day
Next Day »
Daily Weekly Monthly Yearly Custom
  High: Low: Average:
Temperature: 18.2 °F 8.5 °F 14 °F
Dew Point: 7.1 °F 0.2 °F 2.4 °F
Humidity: 72 % 46 % 60 %
Wind Speed: 11.9 mph 0.9 mph 5.2 mph
Wind Gust: 19.6 mph - -
Wind:- - WNW
Pressure: 30.38 in 30.30 in -
Precipitation: 0.00 in    
Historical Graphs
 
 
Tabular Data for January 1, 2018
Time Temperature Dew Point Pressure Wind Wind Speed Wind Gust Humidity Rainfall Rate (Hourly)
00:01 10.9 °F 1.4 °F 30.30 in WNW 4.9 mph 8.1 mph 65 % 0.00 in
00:06 10.8 °F 1.7 °F 30.30 in North 5.7 mph 8.1 mph 66 % 0.00 in
00:11 10.8 °F 1.3 °F 30.30 in NNW 5.6 mph 10.4 mph 65 % 0.00 in
00:14 10.7 °F 1.2 °F 30.30 in North 5.7 mph 15.0 mph 65 % 0.00 in
00:17 10.7 °F 1.2 °F 30.30 in NW 4.8 mph 6.9 mph 65 % 0.00 in
00:20 10.7 °F 1.2 °F 30.30 in North 4.8 mph 9.2 mph 65 % 0.00 in
00:26 10.6 °F 1.5 °F 30.30 in NW 5.9 mph 11.5 mph 66 % 0.00 in
00:31 10.6 °F 1.5 °F 30.30 in NNW 3.0 mph 12.0 mph 66 % 0.00 in
00:36 10.5 °F 1.4 °F 30.30 in NNW 6.9 mph 14.0 mph 66 % 0.00 in
00:37 10.5 °F 1.4 °F 30.30 in NNW 3.4 mph 13.8 mph 66 % 0.00 in
00:42 10.5 °F 1.4 °F 30.30 in NE 4.8 mph 6.9 mph 66 % 0.00 in
00:44 10.6 °F 1.8 °F 30.30 in NNW 7.8 mph 11.5 mph 67 % 0.00 in
00:46 10.6 °F 1.5 °F 30.30 in NW 5.2 mph 8.1 mph 66 % 0.00 in
00:50 10.6 °F 1.5 °F 30.30 in North 5.0 mph 12.0 mph 66 % 0.00 in
00:52 10.5 °F 1.4 °F 30.30 in North 7.7 mph 11.5 mph 66 % 0.00 in
00:57 10.5 °F 1.4 °F 30.31 in NW 3.9 mph 6.9 mph 66 % 0.00 in
01:01 10.5 °F 1.7 °F 30.30 in WNW 6.3 mph 12.7 mph 67 % 0.00 in
01:05 10.5 °F 1.4 °F 30.30 in North 5.2 mph 6.9 mph 66 % 0.00 in
01:11 10.5 °F 1.7 °F 30.30 in NNW 3.0 mph 14.0 mph 67 % 0.00 in
01:16 10.5 °F 1.7 °F 30.30 in WNW 6.2 mph 12.7 mph 67 % 0.00 in
01:21 10.4 °F 1.3 °F 30.31 in NNW 4.3 mph 12.7 mph 66 % 0.00 in
01:26 10.5 °F 2.0 °F 30.31 in North 5.9 mph 8.0 mph 68 % 0.00 in
01:28 10.5 °F 2.0 °F 30.30 in NNW 7.2 mph 11.5 mph 68 % 0.00 in
01:31 10.4 °F 1.9 °F 30.31 in NW 3.1 mph 9.2 mph 68 % 0.00 in
01:35 10.5 °F 2.0 °F 30.31 in North 7.2 mph 11.5 mph 68 % 0.00 in
01:40 10.5 °F 2.3 °F 30.31 in North 7.3 mph 14.0 mph 69 % 0.00 in
01:43 10.5 °F 1.7 °F 30.31 in WNW 6.9 mph 14.0 mph 67 % 0.00 in
01:48 10.5 °F 2.0 °F 30.31 in NW 3.5 mph 7.0 mph 68 % 0.00 in
01:53 10.4 °F 1.6 °F 30.31 in North 4.0 mph 10.4 mph 67 % 0.00 in
01:58 10.4 °F 1.6 °F 30.32 in NNW 4.9 mph 8.1 mph 67 % 0.00 in
02:03 10.4 °F 1.6 °F 30.32 in NNW 5.0 mph 11.5 mph 67 % 0.00 in
02:04 10.4 °F 1.6 °F 30.32 in NW 3.9 mph 10.4 mph 67 % 0.00 in
02:09 10.3 °F 1.5 °F 30.32 in NNW 7.7 mph 11.5 mph 67 % 0.00 in
02:14 10.3 °F 1.8 °F 30.32 in NNW 4.4 mph 8.1 mph 68 % 0.00 in
02:15 10.3 °F 1.5 °F 30.32 in North 4.7 mph 9.2 mph 67 % 0.00 in
02:20 10.3 °F 1.5 °F 30.32 in NW 4.3 mph 8.0 mph 67 % 0.00 in
02:21 10.3 °F 1.5 °F 30.32 in NW 4.6 mph 7.0 mph 67 % 0.00 in
02:26 10.2 °F 1.4 °F 30.32 in NW 5.0 mph 12.0 mph 67 % 0.00 in
02:27 10.2 °F 1.1 °F 30.32 in NW 2.8 mph 8.1 mph 66 % 0.00 in
02:32 10.2 °F 1.4 °F 30.32 in NNW 2.8 mph 6.9 mph 67 % 0.00 in
02:37 10.2 °F 1.7 °F 30.32 in NW 4.6 mph 10.4 mph 68 % 0.00 in
02:42 10.1 °F 1.3 °F 30.32 in NNW 5.3 mph 11.5 mph 67 % 0.00 in
02:43 10.1 °F 1.3 °F 30.32 in NW 7.0 mph 11.5 mph 67 % 0.00 in
02:48 10.1 °F 1.6 °F 30.32 in NW 4.5 mph 5.8 mph 68 % 0.00 in
02:50 10.1 °F 1.6 °F 30.32 in NW 4.3 mph 11.5 mph 68 % 0.00 in
02:55 10.0 °F 1.5 °F 30.32 in NW 5.5 mph 11.5 mph 68 % 0.00 in
03:00 10.0 °F 1.5 °F 30.32 in WNW 3.0 mph 7.0 mph 68 % 0.00 in
03:05 10.0 °F 1.5 °F 30.32 in NW 4.0 mph 10.4 mph 68 % 0.00 in
03:07 10.0 °F 1.5 °F 30.32 in NNE 6.4 mph 12.7 mph 68 % 0.00 in
03:12 9.9 °F 1.4 °F 30.32 in WNW 5.2 mph 12.7 mph 68 % 0.00 in
03:13 9.9 °F 1.4 °F 30.32 in NNW 4.8 mph 9.2 mph 68 % 0.00 in
03:18 9.9 °F 1.1 °F 30.31 in North 5.0 mph 9.2 mph 67 % 0.00 in
03:20 9.9 °F 1.1 °F 30.31 in NNW 2.9 mph 5.8 mph 67 % 0.00 in
03:25 9.8 °F 1.3 °F 30.31 in NNW 4.0 mph 9.2 mph 68 % 0.00 in
03:30 9.8 °F 1.3 °F 30.31 in NW 3.0 mph 11.5 mph 68 % 0.00 in
03:33 9.8 °F 1.3 °F 30.31 in West 4.6 mph 12.0 mph 68 % 0.00 in
03:38 9.7 °F 1.2 °F 30.31 in NW 0.9 mph 3.0 mph 68 % 0.00 in
03:40 9.7 °F 1.2 °F 30.31 in NW 5.6 mph 10.4 mph 68 % 0.00 in
03:41 9.7 °F 1.2 °F 30.31 in NW 3.7 mph 6.9 mph 68 % 0.00 in
03:46 9.7 °F 1.2 °F 30.31 in WNW 8.9 mph 11.5 mph 68 % 0.00 in
03:47 9.7 °F 1.2 °F 30.30 in NW 3.6 mph 11.5 mph 68 % 0.00 in
03:52 9.7 °F 1.2 °F 30.31 in West 4.1 mph 9.0 mph 68 % 0.00 in
03:57 9.6 °F 1.2 °F 30.31 in NW 5.4 mph 8.1 mph 68 % 0.00 in
04:02 9.6 °F 1.2 °F 30.31 in West 5.3 mph 9.0 mph 68 % 0.00 in
04:03 9.6 °F 1.2 °F 30.30 in NNW 4.4 mph 10.4 mph 68 % 0.00 in
04:08 9.5 °F 1.1 °F 30.31 in WNW 2.8 mph 11.5 mph 68 % 0.00 in
04:13 9.4 °F 1.3 °F 30.31 in NNE 6.4 mph 10.4 mph 69 % 0.00 in
04:18 9.4 °F 1.3 °F 30.31 in NNW 4.0 mph 12.0 mph 69 % 0.00 in
04:20 9.4 °F 1.3 °F 30.31 in North 6.0 mph 11.5 mph 69 % 0.00 in
04:24 9.4 °F 1.0 °F 30.31 in NW 3.3 mph 11.5 mph 68 % 0.00 in
04:29 9.3 °F 1.2 °F 30.31 in NW 4.3 mph 16.1 mph 69 % 0.00 in
04:30 9.4 °F 1.3 °F 30.31 in NW 5.1 mph 10.0 mph 69 % 0.00 in
04:35 9.3 °F 1.5 °F 30.31 in NW 3.5 mph 10.4 mph 70 % 0.00 in
04:39 9.3 °F 1.5 °F 30.31 in NW 1.6 mph 9.2 mph 70 % 0.00 in
04:41 9.3 °F 1.5 °F 30.31 in WSW 2.0 mph 3.5 mph 70 % 0.00 in
04:44 9.2 °F 1.4 °F 30.32 in WNW 5.9 mph 9.2 mph 70 % 0.00 in
04:49 9.2 °F 1.4 °F 30.32 in NW 5.1 mph 10.4 mph 70 % 0.00 in
04:51 9.2 °F 1.4 °F 30.32 in NNW 7.0 mph 13.0 mph 70 % 0.00 in
04:56 9.2 °F 1.1 °F 30.32 in WNW 4.3 mph 17.3 mph 69 % 0.00 in
04:57 9.2 °F 1.1 °F 30.32 in North 3.5 mph 9.2 mph 69 % 0.00 in
05:02 9.2 °F 1.4 °F 30.32 in WNW 4.3 mph 10.4 mph 70 % 0.00 in
05:07 9.2 °F 1.4 °F 30.32 in NW 7.0 mph 12.7 mph 70 % 0.00 in
05:10 9.2 °F 1.4 °F 30.32 in NNW 4.1 mph 9.2 mph 70 % 0.00 in
05:12 9.2 °F 1.4 °F 30.33 in NW 5.1 mph 11.5 mph 70 % 0.00 in
05:17 9.1 °F 1.3 °F 30.33 in NNW 2.5 mph 6.0 mph 70 % 0.00 in
05:23 9.1 °F 1.3 °F 30.33 in NW 5.7 mph 11.5 mph 70 % 0.00 in
05:24 9.1 °F 1.3 °F 30.32 in WNW 6.3 mph 8.1 mph 70 % 0.00 in
05:28 9.1 °F 1.3 °F 30.33 in WNW 7.5 mph 13.0 mph 70 % 0.00 in
05:32 9.0 °F 1.2 °F 30.32 in North 5.4 mph 13.0 mph 70 % 0.00 in
05:37 9.0 °F 0.9 °F 30.33 in NW 4.8 mph 10.4 mph 69 % 0.00 in
05:40 9.0 °F 1.2 °F 30.32 in NNW 5.6 mph 11.5 mph 70 % 0.00 in
05:46 9.0 °F 1.2 °F 30.32 in NNW 6.0 mph 16.0 mph 70 % 0.00 in
05:48 9.0 °F 0.9 °F 30.32 in NNW 5.0 mph 7.0 mph 69 % 0.00 in
05:53 9.0 °F 1.2 °F 30.32 in NNW 5.6 mph 9.2 mph 70 % 0.00 in
05:58 9.0 °F 1.2 °F 30.33 in NNW 6.8 mph 10.4 mph 70 % 0.00 in
06:01 9.0 °F 1.2 °F 30.33 in NW 5.0 mph 9.2 mph 70 % 0.00 in
06:02 9.0 °F 1.5 °F 30.33 in NNW 4.8 mph 6.9 mph 71 % 0.00 in
06:07 9.0 °F 1.2 °F 30.33 in NW 5.0 mph 5.0 mph 70 % 0.00 in
06:09 9.0 °F 1.2 °F 30.33 in WNW 5.1 mph 6.0 mph 70 % 0.00 in
06:14 9.0 °F 1.2 °F 30.33 in NW 4.2 mph 8.1 mph 70 % 0.00 in
06:16 9.0 °F 1.2 °F 30.34 in NNW 8.3 mph 13.8 mph 70 % 0.00 in
06:21 8.9 °F 1.1 °F 30.34 in NW 6.5 mph 11.0 mph 70 % 0.00 in
06:23 8.9 °F 1.1 °F 30.34 in NW 4.5 mph 10.4 mph 70 % 0.00 in
06:26 8.9 °F 1.1 °F 30.34 in NNW 5.7 mph 12.0 mph 70 % 0.00 in
06:28 8.9 °F 1.4 °F 30.34 in NW 6.3 mph 12.7 mph 71 % 0.00 in
06:34 8.9 °F 1.1 °F 30.34 in NW 6.0 mph 11.5 mph 70 % 0.00 in
06:38 8.9 °F 0.8 °F 30.34 in NW 5.4 mph 11.5 mph 69 % 0.00 in
06:43 8.8 °F 0.7 °F 30.34 in NNW 5.2 mph 12.7 mph 69 % 0.00 in
06:48 8.8 °F 0.7 °F 30.34 in NNW 5.5 mph 10.4 mph 69 % 0.00 in
06:53 8.8 °F 0.7 °F 30.34 in NW 4.6 mph 4.6 mph 69 % 0.00 in
06:54 8.8 °F 0.7 °F 30.35 in North 5.1 mph 8.0 mph 69 % 0.00 in
06:59 8.7 °F 0.9 °F 30.35 in NW 4.9 mph 13.8 mph 70 % 0.00 in
07:04 8.7 °F 0.9 °F 30.34 in North 4.9 mph 11.5 mph 70 % 0.00 in
07:09 8.6 °F 1.1 °F 30.35 in NW 6.2 mph 11.0 mph 71 % 0.00 in
07:12 8.7 °F 1.2 °F 30.35 in WNW 5.3 mph 8.1 mph 71 % 0.00 in
07:18 8.6 °F 1.1 °F 30.35 in NNW 3.6 mph 5.0 mph 71 % 0.00 in
07:23 8.6 °F 1.4 °F 30.35 in NNW 3.2 mph 7.0 mph 72 % 0.00 in
07:25 8.6 °F 1.4 °F 30.35 in NW 5.1 mph 6.9 mph 72 % 0.00 in
07:30 8.6 °F 1.1 °F 30.35 in NW 5.1 mph 9.2 mph 71 % 0.00 in
07:35 8.6 °F 0.8 °F 30.35 in NNW 5.2 mph 10.4 mph 70 % 0.00 in
07:38 8.6 °F 0.8 °F 30.35 in NW 3.7 mph 8.0 mph 70 % 0.00 in
07:43 8.5 °F 0.4 °F 30.35 in NW 4.3 mph 8.1 mph 69 % 0.00 in
07:48 8.5 °F 0.4 °F 30.35 in NW 3.2 mph 5.8 mph 69 % 0.00 in
07:49 8.5 °F 0.4 °F 30.35 in WNW 3.5 mph 6.0 mph 69 % 0.00 in
07:54 8.6 °F 0.8 °F 30.35 in NNW 4.7 mph 10.4 mph 70 % 0.00 in
07:59 8.5 °F 0.4 °F 30.35 in NW 5.5 mph 10.4 mph 69 % 0.00 in
08:03 8.6 °F 0.8 °F 30.35 in NNW 3.3 mph 8.1 mph 70 % 0.00 in
08:06 8.6 °F 1.1 °F 30.36 in NW 2.3 mph 6.9 mph 71 % 0.00 in
08:09 8.7 °F 1.5 °F 30.36 in NW 3.0 mph 4.6 mph 72 % 0.00 in
08:14 8.7 °F 1.5 °F 30.36 in NW 1.1 mph 6.9 mph 72 % 0.00 in
08:19 8.7 °F 1.5 °F 30.36 in NW 5.7 mph 8.1 mph 72 % 0.00 in
08:22 8.8 °F 1.6 °F 30.36 in WNW 4.1 mph 6.9 mph 72 % 0.00 in
08:27 8.8 °F 1.6 °F 30.36 in WNW 2.7 mph 8.1 mph 72 % 0.00 in
08:33 8.9 °F 1.7 °F 30.37 in NNW 3.5 mph 3.5 mph 72 % 0.00 in
08:34 8.9 °F 1.7 °F 30.37 in NW 2.8 mph 6.9 mph 72 % 0.00 in
08:39 9.0 °F 1.8 °F 30.37 in West 1.8 mph 3.5 mph 72 % 0.00 in
08:43 9.1 °F 1.9 °F 30.37 in West 5.1 mph 8.1 mph 72 % 0.00 in
08:48 9.2 °F 1.7 °F 30.37 in NW 5.4 mph 8.1 mph 71 % 0.00 in
08:53 9.2 °F 1.4 °F 30.37 in NW 2.7 mph 8.1 mph 70 % 0.00 in
08:58 9.3 °F 1.5 °F 30.37 in WSW 6.0 mph 8.1 mph 70 % 0.00 in
09:00 9.4 °F 1.6 °F 30.37 in WSW 6.0 mph 6.0 mph 70 % 0.00 in
09:05 9.4 °F 1.3 °F 30.37 in NW 2.8 mph 4.6 mph 69 % 0.00 in
09:07 9.4 °F 1.3 °F 30.37 in WNW 3.4 mph 8.1 mph 69 % 0.00 in
09:13 9.5 °F 1.7 °F 30.37 in WNW 5.3 mph 6.9 mph 70 % 0.00 in
09:18 9.7 °F 1.9 °F 30.37 in NNW 5.4 mph 9.2 mph 70 % 0.00 in
09:21 9.8 °F 2.0 °F 30.37 in NNW 2.1 mph 3.5 mph 70 % 0.00 in
09:26 9.9 °F 2.1 °F 30.37 in WNW 3.3 mph 7.0 mph 70 % 0.00 in
09:31 10.1 °F 2.3 °F 30.37 in WNW 5.0 mph 9.2 mph 70 % 0.00 in
09:36 10.2 °F 2.4 °F 30.37 in WNW 2.0 mph 6.9 mph 70 % 0.00 in
09:41 10.4 °F 2.5 °F 30.37 in NW 5.6 mph 8.0 mph 70 % 0.00 in
09:43 10.4 °F 2.2 °F 30.38 in NW 3.2 mph 8.1 mph 69 % 0.00 in
09:48 10.7 °F 2.2 °F 30.38 in WNW 4.3 mph 8.1 mph 68 % 0.00 in
09:53 10.9 °F 2.4 °F 30.38 in NNW 3.3 mph 11.5 mph 68 % 0.00 in
09:58 11.2 °F 2.4 °F 30.38 in NNW 1.6 mph 9.2 mph 67 % 0.00 in
10:02 11.4 °F 2.6 °F 30.38 in NE 3.0 mph 7.0 mph 67 % 0.00 in
10:07 11.7 °F 2.5 °F 30.38 in NNW 3.0 mph 8.1 mph 66 % 0.00 in
10:10 11.8 °F 2.3 °F 30.37 in WNW 3.1 mph 5.8 mph 65 % 0.00 in
10:15 12.1 °F 2.6 °F 30.37 in WNW 2.8 mph 4.6 mph 65 % 0.00 in
10:16 12.1 °F 2.6 °F 30.37 in WNW 2.4 mph 4.6 mph 65 % 0.00 in
10:18 12.3 °F 3.1 °F 30.37 in North 2.9 mph 3.5 mph 66 % 0.00 in
10:21 12.5 °F 3.3 °F 30.37 in NW 3.4 mph 6.9 mph 66 % 0.00 in
10:25 12.7 °F 3.1 °F 30.37 in NW 3.8 mph 5.8 mph 65 % 0.00 in
10:30 13.0 °F 4.1 °F 30.37 in NW 4.7 mph 6.0 mph 67 % 0.00 in
10:35 13.2 °F 3.3 °F 30.37 in North 2.6 mph 4.6 mph 64 % 0.00 in
10:38 13.2 °F 3.6 °F 30.37 in NW 4.0 mph 5.8 mph 65 % 0.00 in
10:41 13.3 °F 3.7 °F 30.37 in North 3.1 mph 5.8 mph 65 % 0.00 in
10:45 13.4 °F 3.8 °F 30.37 in WNW 3.4 mph 6.9 mph 65 % 0.00 in
10:48 13.4 °F 3.5 °F 30.37 in NNW 4.5 mph 9.0 mph 64 % 0.00 in
10:49 13.5 °F 3.9 °F 30.37 in NW 5.7 mph 9.2 mph 65 % 0.00 in
10:54 13.6 °F 4.0 °F 30.36 in NNW 3.3 mph 6.9 mph 65 % 0.00 in
10:59 13.7 °F 4.1 °F 30.36 in NW 2.9 mph 6.9 mph 65 % 0.00 in
11:04 13.6 °F 3.3 °F 30.36 in NW 2.0 mph 6.9 mph 63 % 0.00 in
11:09 13.5 °F 3.6 °F 30.36 in NW 3.4 mph 9.2 mph 64 % 0.00 in
11:10 13.5 °F 3.6 °F 30.35 in North 2.4 mph 5.8 mph 64 % 0.00 in
11:15 13.5 °F 3.6 °F 30.35 in WNW 4.2 mph 6.9 mph 64 % 0.00 in
11:18 13.5 °F 3.6 °F 30.35 in NNW 3.5 mph 6.0 mph 64 % 0.00 in
11:22 13.5 °F 2.9 °F 30.35 in WNW 4.3 mph 9.0 mph 62 % 0.00 in
11:27 13.4 °F 3.1 °F 30.35 in West 2.3 mph 5.8 mph 63 % 0.00 in
11:29 13.3 °F 2.7 °F 30.36 in West 1.8 mph 4.6 mph 62 % 0.00 in
11:34 13.3 °F 2.3 °F 30.35 in NW 2.9 mph 9.2 mph 61 % 0.00 in
11:36 13.4 °F 2.4 °F 30.35 in NW 2.1 mph 5.8 mph 61 % 0.00 in
11:38 13.3 °F 2.0 °F 30.35 in NW 6.2 mph 8.1 mph 60 % 0.00 in
11:44 13.2 °F 1.5 °F 30.35 in WSW 3.5 mph 6.9 mph 59 % 0.00 in
11:49 13.2 °F 1.9 °F 30.35 in NW 3.1 mph 6.9 mph 60 % 0.00 in
11:50 13.2 °F 2.3 °F 30.34 in West 4.6 mph 6.9 mph 61 % 0.00 in
11:55 13.3 °F 1.6 °F 30.34 in WSW 5.7 mph 8.1 mph 59 % 0.00 in
11:58 13.4 °F 2.1 °F 30.34 in WNW 4.1 mph 8.1 mph 60 % 0.00 in
12:03 13.4 °F 1.7 °F 30.34 in NW 4.6 mph 6.9 mph 59 % 0.00 in
12:04 13.5 °F 1.8 °F 30.34 in NW 4.0 mph 8.1 mph 59 % 0.00 in
12:07 13.6 °F 2.3 °F 30.34 in WSW 3.7 mph 4.6 mph 60 % 0.00 in
12:12 13.7 °F 2.4 °F 30.34 in West 0.9 mph 4.6 mph 60 % 0.00 in
12:13 13.8 °F 2.5 °F 30.34 in North 1.2 mph 4.0 mph 60 % 0.00 in
12:14 14.0 °F 2.7 °F 30.33 in NW 2.2 mph 3.5 mph 60 % 0.00 in
12:18 14.1 °F 2.7 °F 30.33 in NNW 1.4 mph 3.5 mph 60 % 0.00 in
12:22 14.4 °F 3.4 °F 30.33 in WSW 3.7 mph 6.9 mph 61 % 0.00 in
12:23 14.5 °F 3.5 °F 30.33 in NW 2.9 mph 5.0 mph 61 % 0.00 in
12:28 15.1 °F 3.0 °F 30.33 in NNW 3.2 mph 6.9 mph 58 % 0.00 in
12:33 15.7 °F 3.5 °F 30.33 in NNW 4.9 mph 11.5 mph 58 % 0.00 in
12:36 16.1 °F 3.5 °F 30.33 in WNW 6.2 mph 15.0 mph 57 % 0.00 in
12:41 16.4 °F 2.6 °F 30.33 in NNW 6.9 mph 11.5 mph 54 % 0.00 in
12:47 16.6 °F 2.8 °F 30.33 in NNW 4.2 mph 5.8 mph 54 % 0.00 in
12:51 16.8 °F 3.0 °F 30.33 in WSW 4.8 mph 11.5 mph 54 % 0.00 in
12:56 16.9 °F 2.7 °F 30.33 in North 5.8 mph 8.1 mph 53 % 0.00 in
12:58 17.0 °F 2.8 °F 30.33 in WNW 4.8 mph 8.1 mph 53 % 0.00 in
13:03 17.0 °F 2.4 °F 30.32 in WNW 4.3 mph 11.0 mph 52 % 0.00 in
13:04 17.1 °F 2.5 °F 30.32 in NW 5.5 mph 12.7 mph 52 % 0.00 in
13:07 17.2 °F 3.0 °F 30.32 in North 6.2 mph 12.7 mph 53 % 0.00 in
13:12 17.3 °F 3.1 °F 30.32 in WSW 4.3 mph 11.5 mph 53 % 0.00 in
13:17 17.5 °F 2.8 °F 30.32 in WNW 2.6 mph 12.0 mph 52 % 0.00 in
13:19 17.5 °F 2.8 °F 30.32 in NW 6.3 mph 12.0 mph 52 % 0.00 in
13:24 17.6 °F 3.3 °F 30.32 in WNW 6.8 mph 9.2 mph 53 % 0.00 in
13:29 17.7 °F 3.0 °F 30.32 in WNW 4.6 mph 11.5 mph 52 % 0.00 in
13:31 17.7 °F 3.0 °F 30.32 in West 4.7 mph 8.1 mph 52 % 0.00 in
13:32 17.7 °F 3.4 °F 30.32 in West 4.9 mph 6.9 mph 53 % 0.00 in
13:36 17.8 °F 2.3 °F 30.32 in NW 8.8 mph 19.6 mph 50 % 0.00 in
13:41 17.7 °F 2.2 °F 30.32 in NNW 7.2 mph 12.7 mph 50 % 0.00 in
13:43 17.7 °F 2.2 °F 30.32 in NNE 4.0 mph 8.1 mph 50 % 0.00 in
13:48 17.8 °F 2.7 °F 30.32 in WNW 6.4 mph 11.5 mph 51 % 0.00 in
13:49 17.8 °F 2.7 °F 30.32 in NNW 6.3 mph 11.5 mph 51 % 0.00 in
13:50 17.8 °F 2.3 °F 30.32 in WNW 7.1 mph 11.5 mph 50 % 0.00 in
13:55 17.8 °F 2.3 °F 30.32 in NNW 7.3 mph 13.8 mph 50 % 0.00 in
13:58 17.9 °F 2.8 °F 30.32 in NNW 3.8 mph 9.2 mph 51 % 0.00 in
14:03 18.0 °F 2.5 °F 30.32 in NW 6.9 mph 12.7 mph 50 % 0.00 in
14:08 18.0 °F 2.5 °F 30.32 in NNW 7.4 mph 12.7 mph 50 % 0.00 in
14:13 18.1 °F 3.4 °F 30.31 in NNW 7.3 mph 13.8 mph 52 % 0.00 in
14:15 18.1 °F 3.0 °F 30.31 in NNW 9.4 mph 13.8 mph 51 % 0.00 in
14:20 18.2 °F 3.1 °F 30.31 in NW 8.5 mph 11.5 mph 51 % 0.00 in
14:21 18.1 °F 3.0 °F 30.31 in WNW 7.2 mph 11.5 mph 51 % 0.00 in
14:26 18.0 °F 2.5 °F 30.31 in NW 7.8 mph 16.1 mph 50 % 0.00 in
14:31 17.9 °F 2.4 °F 30.31 in WNW 4.1 mph 8.1 mph 50 % 0.00 in
14:37 17.8 °F 2.3 °F 30.31 in NNW 4.1 mph 11.5 mph 50 % 0.00 in
14:39 17.8 °F 2.7 °F 30.32 in NW 4.5 mph 9.2 mph 51 % 0.00 in
14:44 17.8 °F 2.3 °F 30.31 in NNW 3.2 mph 10.0 mph 50 % 0.00 in
14:49 17.8 °F 2.3 °F 30.32 in NNW 5.8 mph 12.7 mph 50 % 0.00 in
14:54 17.8 °F 2.7 °F 30.32 in NW 7.8 mph 13.0 mph 51 % 0.00 in
14:56 17.8 °F 2.3 °F 30.31 in West 6.8 mph 13.8 mph 50 % 0.00 in
14:57 17.8 °F 1.8 °F 30.32 in NNW 3.2 mph 9.2 mph 49 % 0.00 in
15:02 17.8 °F 2.3 °F 30.31 in NW 5.1 mph 10.4 mph 50 % 0.00 in
15:03 17.8 °F 2.3 °F 30.32 in NNW 4.8 mph 10.4 mph 50 % 0.00 in
15:08 17.8 °F 1.4 °F 30.31 in WNW 4.7 mph 9.2 mph 48 % 0.00 in
15:09 17.8 °F 1.8 °F 30.31 in West 5.2 mph 5.2 mph 49 % 0.00 in
15:11 17.8 °F 1.8 °F 30.31 in SW 6.5 mph 10.4 mph 49 % 0.00 in
15:16 17.8 °F 1.8 °F 30.31 in NW 5.3 mph 10.4 mph 49 % 0.00 in
15:20 17.8 °F 2.3 °F 30.31 in NNW 7.1 mph 11.5 mph 50 % 0.00 in
15:25 17.8 °F 1.8 °F 30.31 in NNW 7.7 mph 11.5 mph 49 % 0.00 in
15:28 17.9 °F 2.8 °F 30.31 in NW 1.8 mph 6.9 mph 51 % 0.00 in
15:33 17.9 °F 2.4 °F 30.32 in NNW 4.8 mph 8.1 mph 50 % 0.00 in
15:38 17.8 °F 1.8 °F 30.32 in WNW 7.2 mph 12.0 mph 49 % 0.00 in
15:40 17.8 °F 1.8 °F 30.32 in NW 10.6 mph 17.0 mph 49 % 0.00 in
15:43 17.8 °F 1.4 °F 30.32 in NW 5.1 mph 10.4 mph 48 % 0.00 in
15:48 17.7 °F 1.3 °F 30.32 in WNW 8.7 mph 12.7 mph 48 % 0.00 in
15:53 17.6 °F 1.7 °F 30.32 in WNW 3.2 mph 8.0 mph 49 % 0.00 in
15:58 17.6 °F 0.8 °F 30.32 in NNW 3.2 mph 9.2 mph 47 % 0.00 in
16:01 17.6 °F 1.2 °F 30.31 in NNW 6.3 mph 10.4 mph 48 % 0.00 in
16:02 17.6 °F 1.7 °F 30.31 in North 7.3 mph 10.0 mph 49 % 0.00 in
16:07 17.6 °F 2.1 °F 30.32 in NNW 3.9 mph 8.1 mph 50 % 0.00 in
16:08 17.6 °F 2.1 °F 30.32 in NW 6.1 mph 8.1 mph 50 % 0.00 in
16:10 17.6 °F 2.1 °F 30.32 in WNW 3.2 mph 7.0 mph 50 % 0.00 in
16:16 17.5 °F 1.6 °F 30.32 in WNW 6.0 mph 12.0 mph 49 % 0.00 in
16:18 17.5 °F 1.1 °F 30.32 in NW 3.9 mph 8.1 mph 48 % 0.00 in
16:23 17.5 °F 1.1 °F 30.32 in NNW 5.2 mph 9.0 mph 48 % 0.00 in
16:26 17.5 °F 1.1 °F 30.32 in WSW 4.0 mph 9.2 mph 48 % 0.00 in
16:31 17.5 °F 2.0 °F 30.32 in WNW 4.5 mph 10.4 mph 50 % 0.00 in
16:38 17.6 °F 1.2 °F 30.32 in WNW 5.3 mph 9.2 mph 48 % 0.00 in
16:41 17.6 °F 0.8 °F 30.33 in WSW 4.6 mph 9.2 mph 47 % 0.00 in
16:46 17.6 °F 0.8 °F 30.33 in West 9.4 mph 16.1 mph 47 % 0.00 in
16:50 17.5 °F 0.2 °F 30.33 in NNW 6.9 mph 11.5 mph 46 % 0.00 in
16:54 17.6 °F 1.2 °F 30.33 in NW 4.6 mph 11.0 mph 48 % 0.00 in
16:59 17.6 °F 1.2 °F 30.32 in WNW 3.8 mph 8.1 mph 48 % 0.00 in
17:01 17.6 °F 0.8 °F 30.33 in WNW 10.1 mph 17.0 mph 47 % 0.00 in
17:06 17.6 °F 0.3 °F 30.32 in NW 7.6 mph 15.0 mph 46 % 0.00 in
17:07 17.6 °F 0.8 °F 30.33 in WSW 7.4 mph 15.0 mph 47 % 0.00 in
17:12 17.7 °F 0.9 °F 30.33 in NW 5.5 mph 7.0 mph 47 % 0.00 in
17:14 17.7 °F 0.9 °F 30.33 in WNW 5.5 mph 13.8 mph 47 % 0.00 in
17:16 17.7 °F 0.9 °F 30.33 in WNW 7.1 mph 9.2 mph 47 % 0.00 in
17:20 17.7 °F 1.3 °F 30.33 in WNW 4.2 mph 6.9 mph 48 % 0.00 in
17:25 17.7 °F 1.3 °F 30.33 in WNW 5.9 mph 11.0 mph 48 % 0.00 in
17:27 17.7 °F 1.3 °F 30.33 in NW 6.6 mph 10.0 mph 48 % 0.00 in
17:28 17.7 °F 1.3 °F 30.33 in South 4.4 mph 10.4 mph 48 % 0.00 in
17:33 17.7 °F 1.3 °F 30.34 in West 3.7 mph 8.1 mph 48 % 0.00 in
17:35 17.7 °F 1.3 °F 30.33 in NW 8.8 mph 15.0 mph 48 % 0.00 in
17:40 17.7 °F 2.6 °F 30.33 in West 3.4 mph 8.0 mph 51 % 0.00 in
17:45 17.7 °F 2.2 °F 30.33 in WSW 6.0 mph 11.5 mph 50 % 0.00 in
17:50 17.7 °F 1.7 °F 30.33 in WNW 7.0 mph 13.8 mph 49 % 0.00 in
17:55 17.7 °F 1.7 °F 30.33 in WSW 3.8 mph 8.1 mph 49 % 0.00 in
18:01 17.7 °F 2.6 °F 30.33 in NW 6.7 mph 8.1 mph 51 % 0.00 in
18:05 17.6 °F 2.1 °F 30.34 in NW 5.2 mph 12.7 mph 50 % 0.00 in
18:10 17.6 °F 2.1 °F 30.34 in WNW 4.6 mph 13.0 mph 50 % 0.00 in
18:15 17.7 °F 2.6 °F 30.33 in WSW 4.3 mph 8.1 mph 51 % 0.00 in
18:20 17.7 °F 2.2 °F 30.34 in WNW 5.0 mph 8.0 mph 50 % 0.00 in
18:22 17.7 °F 2.6 °F 30.33 in WNW 3.1 mph 11.5 mph 51 % 0.00 in
18:28 17.7 °F 2.6 °F 30.34 in WNW 7.4 mph 13.0 mph 51 % 0.00 in
18:30 17.8 °F 2.7 °F 30.34 in West 6.0 mph 11.5 mph 51 % 0.00 in
18:31 17.8 °F 2.7 °F 30.34 in NW 6.9 mph 15.0 mph 51 % 0.00 in
18:36 17.8 °F 2.3 °F 30.34 in WNW 3.7 mph 8.1 mph 50 % 0.00 in
18:37 17.8 °F 2.3 °F 30.34 in West 3.8 mph 8.1 mph 50 % 0.00 in
18:39 17.8 °F 2.7 °F 30.34 in West 3.3 mph 5.8 mph 51 % 0.00 in
18:44 17.8 °F 2.7 °F 30.34 in West 2.2 mph 8.1 mph 51 % 0.00 in
18:49 17.8 °F 2.7 °F 30.34 in West 5.2 mph 13.8 mph 51 % 0.00 in
18:51 17.9 °F 2.4 °F 30.34 in WSW 6.6 mph 12.7 mph 50 % 0.00 in
18:56 17.9 °F 2.4 °F 30.34 in West 4.9 mph 15.0 mph 50 % 0.00 in
19:01 17.9 °F 2.4 °F 30.34 in West 4.0 mph 12.7 mph 50 % 0.00 in
19:02 17.9 °F 2.4 °F 30.34 in WNW 4.8 mph 10.4 mph 50 % 0.00 in
19:07 17.9 °F 2.4 °F 30.34 in West 6.9 mph 13.8 mph 50 % 0.00 in
19:08 17.9 °F 2.4 °F 30.34 in WNW 6.9 mph 13.8 mph 50 % 0.00 in
19:13 18.0 °F 2.5 °F 30.34 in SW 4.2 mph 8.1 mph 50 % 0.00 in
19:15 18.0 °F 2.5 °F 30.33 in WNW 6.5 mph 11.5 mph 50 % 0.00 in
19:20 18.0 °F 2.5 °F 30.33 in WNW 5.6 mph 10.4 mph 50 % 0.00 in
19:21 18.0 °F 2.5 °F 30.33 in SW 3.1 mph 11.5 mph 50 % 0.00 in
19:26 17.9 °F 2.4 °F 30.33 in WNW 9.7 mph 12.7 mph 50 % 0.00 in
19:27 17.9 °F 2.4 °F 30.34 in NW 8.8 mph 13.8 mph 50 % 0.00 in
19:32 17.9 °F 2.4 °F 30.33 in NW 4.7 mph 12.0 mph 50 % 0.00 in
19:33 17.9 °F 2.4 °F 30.34 in West 4.3 mph 11.5 mph 50 % 0.00 in
19:38 17.9 °F 2.8 °F 30.34 in WNW 4.9 mph 9.0 mph 51 % 0.00 in
19:41 17.9 °F 2.4 °F 30.34 in WNW 5.3 mph 11.5 mph 50 % 0.00 in
19:47 18.0 °F 3.3 °F 30.34 in WNW 8.1 mph 15.0 mph 52 % 0.00 in
19:48 18.0 °F 3.3 °F 30.34 in NW 10.1 mph 15.0 mph 52 % 0.00 in
19:53 18.0 °F 2.5 °F 30.34 in WNW 4.7 mph 12.7 mph 50 % 0.00 in
19:55 18.0 °F 2.5 °F 30.34 in NW 9.1 mph 16.1 mph 50 % 0.00 in
20:00 18.0 °F 2.9 °F 30.34 in WNW 6.5 mph 12.7 mph 51 % 0.00 in
20:03 18.0 °F 2.9 °F 30.34 in WNW 4.5 mph 11.5 mph 51 % 0.00 in
20:06 18.0 °F 2.9 °F 30.34 in West 6.1 mph 13.8 mph 51 % 0.00 in
20:11 18.0 °F 2.9 °F 30.34 in West 7.7 mph 12.7 mph 51 % 0.00 in
20:12 18.0 °F 3.3 °F 30.34 in West 6.0 mph 11.5 mph 52 % 0.00 in
20:16 18.0 °F 3.3 °F 30.34 in SW 6.9 mph 11.0 mph 52 % 0.00 in
20:21 17.9 °F 3.6 °F 30.34 in WNW 5.8 mph 10.0 mph 53 % 0.00 in
20:25 17.9 °F 3.6 °F 30.34 in West 6.0 mph 11.5 mph 53 % 0.00 in
20:27 17.9 °F 4.0 °F 30.34 in WNW 6.1 mph 9.2 mph 54 % 0.00 in
20:32 17.9 °F 3.6 °F 30.34 in NW 7.7 mph 13.0 mph 53 % 0.00 in
20:35 17.9 °F 4.0 °F 30.34 in WNW 8.2 mph 18.4 mph 54 % 0.00 in
20:38 17.9 °F 4.0 °F 30.35 in WSW 5.3 mph 11.5 mph 54 % 0.00 in
20:40 17.9 °F 4.0 °F 30.34 in NW 8.0 mph 12.7 mph 54 % 0.00 in
20:45 17.9 °F 4.0 °F 30.34 in WNW 5.1 mph 12.7 mph 54 % 0.00 in
20:49 17.9 °F 3.6 °F 30.34 in WSW 4.6 mph 15.0 mph 53 % 0.00 in
20:53 17.9 °F 3.6 °F 30.34 in WNW 5.7 mph 11.5 mph 53 % 0.00 in
20:56 17.9 °F 3.6 °F 30.34 in West 4.6 mph 10.0 mph 53 % 0.00 in
20:58 17.9 °F 3.6 °F 30.34 in West 7.2 mph 12.7 mph 53 % 0.00 in
21:03 17.8 °F 3.5 °F 30.34 in WNW 4.6 mph 11.5 mph 53 % 0.00 in
21:13 17.9 °F 3.6 °F 30.34 in WSW 5.9 mph 9.2 mph 53 % 0.00 in
21:17 17.9 °F 4.0 °F 30.33 in WSW 4.9 mph 9.2 mph 54 % 0.00 in
21:19 17.9 °F 4.0 °F 30.33 in SW 6.9 mph 11.5 mph 54 % 0.00 in
21:24 17.9 °F 3.6 °F 30.34 in SW 5.6 mph 15.0 mph 53 % 0.00 in
21:25 17.9 °F 4.0 °F 30.33 in WSW 7.5 mph 11.5 mph 54 % 0.00 in
21:30 17.9 °F 4.0 °F 30.34 in West 8.1 mph 13.8 mph 54 % 0.00 in
21:31 18.0 °F 4.1 °F 30.34 in West 8.0 mph 14.0 mph 54 % 0.00 in
21:34 17.9 °F 4.4 °F 30.33 in WSW 7.6 mph 11.5 mph 55 % 0.00 in
21:37 17.9 °F 4.4 °F 30.33 in West 4.4 mph 9.2 mph 55 % 0.00 in
21:42 17.9 °F 4.8 °F 30.33 in NW 7.2 mph 9.0 mph 56 % 0.00 in
21:44 17.9 °F 4.8 °F 30.33 in WSW 5.4 mph 13.0 mph 56 % 0.00 in
21:49 17.9 °F 5.2 °F 30.34 in WSW 7.3 mph 12.7 mph 57 % 0.00 in
21:50 18.0 °F 5.3 °F 30.33 in SW 7.1 mph 12.7 mph 57 % 0.00 in
21:55 18.0 °F 5.3 °F 30.34 in WSW 5.9 mph 14.0 mph 57 % 0.00 in
22:00 18.0 °F 5.7 °F 30.33 in West 11.9 mph 17.3 mph 58 % 0.00 in
22:01 18.1 °F 5.8 °F 30.34 in NW 6.4 mph 13.8 mph 58 % 0.00 in
22:07 18.1 °F 5.8 °F 30.33 in WNW 3.3 mph 11.5 mph 58 % 0.00 in
22:13 18.1 °F 5.8 °F 30.34 in WSW 7.6 mph 12.0 mph 58 % 0.00 in
22:16 18.2 °F 6.3 °F 30.34 in WSW 4.6 mph 11.5 mph 59 % 0.00 in
22:20 18.1 °F 6.2 °F 30.33 in West 6.0 mph 12.0 mph 59 % 0.00 in
22:21 18.1 °F 6.2 °F 30.33 in WSW 5.9 mph 9.2 mph 59 % 0.00 in
22:31 18.1 °F 6.9 °F 30.33 in West 7.3 mph 11.5 mph 61 % 0.00 in
22:36 18.2 °F 7.0 °F 30.33 in NW 6.5 mph 13.8 mph 61 % 0.00 in
22:41 18.2 °F 7.0 °F 30.33 in WSW 6.4 mph 10.0 mph 61 % 0.00 in
22:45 18.2 °F 7.0 °F 30.33 in WSW 5.4 mph 11.5 mph 61 % 0.00 in
22:50 18.2 °F 7.0 °F 30.33 in West 6.1 mph 10.4 mph 61 % 0.00 in
22:51 18.2 °F 7.0 °F 30.33 in West 4.2 mph 9.0 mph 61 % 0.00 in
22:57 18.2 °F 7.0 °F 30.33 in NNW 7.4 mph 17.3 mph 61 % 0.00 in
23:02 18.1 °F 6.5 °F 30.33 in WSW 11.2 mph 16.0 mph 60 % 0.00 in
23:07 18.2 °F 6.6 °F 30.33 in WSW 5.1 mph 10.4 mph 60 % 0.00 in
23:09 18.1 °F 6.5 °F 30.33 in SW 7.9 mph 18.0 mph 60 % 0.00 in
23:13 18.1 °F 6.9 °F 30.33 in WSW 5.3 mph 10.4 mph 61 % 0.00 in
23:23 18.0 °F 6.8 °F 30.33 in WNW 8.5 mph 14.0 mph 61 % 0.00 in
23:24 18.0 °F 6.8 °F 30.33 in West 9.9 mph 13.0 mph 61 % 0.00 in
23:29 18.0 °F 6.8 °F 30.33 in West 7.1 mph 13.8 mph 61 % 0.00 in
23:30 18.0 °F 6.8 °F 30.32 in WNW 4.3 mph 11.5 mph 61 % 0.00 in
23:35 17.9 °F 6.7 °F 30.33 in West 7.8 mph 13.0 mph 61 % 0.00 in
23:38 17.9 °F 7.1 °F 30.33 in WNW 3.8 mph 6.9 mph 62 % 0.00 in
23:44 17.8 °F 7.0 °F 30.32 in West 10.0 mph 15.0 mph 62 % 0.00 in
23:46 17.8 °F 7.0 °F 30.33 in WNW 6.2 mph 14.0 mph 62 % 0.00 in
23:50 17.7 °F 6.9 °F 30.33 in WNW 8.9 mph 9.2 mph 62 % 0.00 in
23:55 17.6 °F 6.8 °F 30.32 in NNW 10.8 mph 18.4 mph 62 % 0.00 in
Crab Meadow Weather
Compliments of Weather Underground - 3.5 mb

Script developed by  Jim McMurry - jmcmurry@mwt.net Adapted for the template by  Wim van der Kuil - Leuven-Template.eu

Astronomy: Space missions to Mars suggest that it once had water.